Regional Weather Roundup
Issued by NWS Burlington, VT

Home | Current Version | Previous Version | Text Only | Print | Product List | Glossary On
Versions: 1 2 3 4 5 6 7 8 9 10 11 12 13 14 15 16 17 18 19 20 21 22 23 24 25 26 27 28 29 30 31 32 33 34 35 36 37 38 39 40 41 42 43 44 45 46 47 48 49 50
000
ASUS41 KBTV 241810
RWRBTV
VERMONT REGIONAL WEATHER ROUNDUP
NATIONAL WEATHER SERVICE BURLINGTON VT
200 PM EDT WED MAY 24 2017

NOTE: "FAIR" INDICATES FEW OR NO CLOUDS BELOW 12,000 FEET WITH NO
SIGNIFICANT WEATHER AND/OR OBSTRUCTIONS TO VISIBILITY.

* THESE REPORTS ARE NOT UNDER NWS QUALITY CONTROL AND/OR DO NOT
  REPORT WEATHER SUCH AS PRECIPITATION AND FOG.

VTZ001>019-241900-
_____VERMONT_____


CITY           SKY/WX    TMP DP  RH WIND       PRES   REMARKS
BURLINGTON     PTSUNNY   76  48  37 VRB6      29.74F
6HR MIN TEMP:  62; 6HR MAX TEMP:  76;

MONTPELIER     CLOUDY    69  50  50 S10       29.81F
6HR MIN TEMP:  50; 6HR MAX TEMP:  70;

MORRISVILLE    CLOUDY    65  51  60 CALM      29.78F
6HR MIN TEMP:  51; 6HR MAX TEMP:  70;

ST. JOHNSBURY*   N/A     73  46  38 MISG      29.75F
6HR MIN TEMP:  50; 6HR MAX TEMP:  73;

LYNDONVILLE*   PTSUNNY   69  48  47 E6        29.79F
6HR MIN TEMP:  52; 6HR MAX TEMP:  70;

MIDDLEBURY*    PTSUNNY   72  50  45 S7        29.74F
6HR MIN TEMP:  57; 6HR MAX TEMP:  74;

RUTLAND*       CLOUDY    73  48  41 E8        29.76S
6HR MIN TEMP:  55; 6HR MAX TEMP:  73;

SPRINGFIELD    CLOUDY    72  47  40 VRB6      29.77F
6HR MIN TEMP:  55; 6HR MAX TEMP:  72;

HIGHGATE*      FAIR      72  55  56 E3        29.75F
6HR MIN TEMP:  58; 6HR MAX TEMP:  72;

NEWPORT*       CLOUDY    68  51  53 SW3       29.78F
6HR MIN TEMP:  56; 6HR MAX TEMP:  69;

BENNINGTON     CLOUDY    72  48  42 S10       29.76S
6HR MIN TEMP:  57; 6HR MAX TEMP:  72;

SUTTON*          N/A     68 N/A N/A MISG        N/A

_____LAKE CHAMPLAIN_____


CITY           SKY/WX    TMP DP  RH WIND       PRES   REMARKS
BURTON ISLAND*   N/A     64  54  68 N2          N/A
COLCHESTER RF*   N/A     61  52  72 NW6         N/A
DIAMOND ISL*     N/A     66  52  59 N12         N/A

$$

NYZ007-026>031-035-052-083-087-241900-
_____NORTHERN NEW YORK_____


CITY           SKY/WX    TMP DP  RH WIND       PRES   REMARKS
PLATTSBURGH    CLOUDY    72  51  47 E6        29.74F
6HR MIN TEMP:  55; 6HR MAX TEMP:  72;

SARANAC LAKE   CLOUDY    69  44  40 VRB3      29.74F
6HR MIN TEMP:  51; 6HR MAX TEMP:  72;

MASSENA        CLOUDY    71  54  54 CALM      29.75F
6HR MIN TEMP:  56; 6HR MAX TEMP:  72;

OGDENSBURG*    FAIR      73  57  56 NW6       29.73F
6HR MIN TEMP:  56; 6HR MAX TEMP:  74;

POTSDAM*       SUNNY     72  55  56 CALM      29.74F
WATERTOWN      MOSUNNY   77  55  46 N9        29.69F
6HR MIN TEMP:  55; 6HR MAX TEMP:  77;

FT DRUM        CLOUDY    77  46  32 SE8G17    29.70F
6HR MIN TEMP:  55; 6HR MAX TEMP:  78;

ALBANY         CLOUDY    74  51  44 S8        29.75F
6HR MIN TEMP:  56; 6HR MAX TEMP:  75;


$$
NHZ002-005-011-241900-
_____NEW HAMPSHIRE_____


CITY           SKY/WX    TMP DP  RH WIND       PRES   REMARKS
LEBANON        PTSUNNY   73  46  38 VRB3      29.76F
6HR MIN TEMP:  53; 6HR MAX TEMP:  74;

KEENE          CLOUDY    70  49  47 VRB6      29.78F
6HR MIN TEMP:  53; 6HR MAX TEMP:  71;

MT WASHINGTON  CLOUDY    45  39  81 W7          N/A
6HR MIN TEMP:  39; 6HR MAX TEMP:  44;

WHITEFIELD     CLOUDY    68  48  48 S6        29.79F
6HR MIN TEMP:  53; 6HR MAX TEMP:  70;


$$

_____REGIONAL QUEBEC LOCATIONS_____


CITY           SKY/WX    TMP DP  RH WIND       PRES   REMARKS
MONTREAL       PTSUNNY   72  52  49 NE5       29.75F
QUEBEC CITY    CLOUDY    68  48  49 VRB2      29.79S
SHERBROOKE     MOSUNNY   70  50  49 VRB6      29.77F

_____REGIONAL ONTARIO LOCATIONS_____


CITY           SKY/WX    TMP DP  RH WIND       PRES   REMARKS
OTTAWA         PTSUNNY   70  52  52 E6        29.76S

______KEY______
VSB  - VISIBILITY IN MILES
WCI  - WIND CHILL INDEX
HX   - HEAT INDEX
$$
NNNN



USA.gov is the U.S. government's official web portal to all federal, state and local government web resources and services.